Location: Clarion
(42.7316°N, 93.7330°W)
Time: 08:48:43
(UTC+00:00)

Cosmos 1934 Rocket - Pass Details

Date: 22 April 2026
Orbit: 936 x 999 km, 83.0° (Epoch: 17 May)

Event Time Altitude Azimuth Distance (km) Brightness Sun altitude
Exits shadow 03:30:37 18° 200° (SSW) 2,193 5.6 -23.6°
Maximum altitude 03:35:21 67° 280° (W) 1,056 4.3 -24.2°
Drops below altitude 10° 03:41:32 10° 2° (N) 2,708 6.9 -25.0°
Sets 03:44:03 0° 6° (N) 3,649 7.6 -25.3°
